This demonstration page uses our WeatherBlox Daily Observations layout. Learn more.

Left ArrowRight Arrow

Hourly Observations for May 20, 2022

Temp ( °F °C ) Dew Point ( °F °C ) Humidity (%) Winds ( mph kmh ) Pressure ( in mb ) Visibility ( mi km ) Precip ( " mm )
12:54 am 00:54 Cloudy 60 15.6 42 5.6 52 52 N 24 39 29.42 996 10 16 0.00 0.00
1:54 am 01:54 Cloudy 59 15 41 5 51 51 N 22 35 29.41 996 10 16 0.00 0.00
2:54 am 02:54 Cloudy 58 14.4 41 5 53 53 NNE 25 41 29.41 996 10 16 0.00 0.00
3:54 am 03:54 Cloudy 57 13.9 41 5 55 55 NNE 13 20 29.42 996 10 16 0.00 0.00
4:54 am 04:54 Cloudy 57 13.9 41 5 55 55 NNE 15 24 29.43 997 10 16 0.00 0.00
5:54 am 05:54 Cloudy 57 13.9 40 4.4 53 53 N 13 20 29.48 998 10 16 0.00 0.00
6:54 am 06:54 Cloudy 56 13.3 40 4.4 55 55 N 15 24 29.51 999 10 16 0.00 0.00
7:54 am 07:54 Cloudy 56 13.3 40 4.4 55 55 N 13 20 29.53 1000 10 16 0.00 0.00
9:54 am 09:54 Cloudy 59 15 39 3.9 48 48 NNW 12 19 29.58 1002 10 16 0.00 0.00
10:54 am 10:54 Cloudy 61 16.1 40 4.4 46 46 NNW 8 13 29.61 1003 10 16 0.00 0.00
11:54 am 11:54 Cloudy 67 19.4 39 3.9 36 36 NNW 9 15 29.62 1003 10 16 0.00 0.00
12:54 pm 12:54 Cloudy 68 20 37 2.8 32 32 NNW 15 24 29.62 1003 10 16 0.00 0.00
1:54 pm 13:54 Cloudy 69 20.6 40 4.4 35 35 N 13 20 29.63 1004 10 16 0.00 0.00
2:54 pm 14:54 Mostly Cloudy 71 21.7 39 3.9 31 31 NNW 8 13 29.63 1004 10 16 0.00 0.00
3:54 pm 15:54 Mostly Cloudy 73 22.8 40 4.4 30 30 NNW 18 30 29.65 1004 10 16 0.00 0.00
4:54 pm 16:54 Sunny 73 22.8 38 3.3 28 28 N 14 22 29.67 1005 10 16 0.00 0.00
6:54 pm 18:54 Mostly Cloudy 67 19.4 35 1.7 31 31 NNW 15 24 29.76 1008 10 16 0.00 0.00
7:54 pm 19:54 Mostly Cloudy 65 18.3 35 1.7 33 33 NW 15 24 29.80 1009 10 16 0.00 0.00
8:54 pm 20:54 Cloudy 63 17.2 38 3.3 40 40 NW 20 31 29.84 1011 10 16 0.00 0.00
9:54 pm 21:54 Cloudy 60 15.6 36 2.2 41 41 NNW 18 30 29.90 1012 10 16 0.00 0.00
10:54 pm 22:54 Partly Cloudy 58 14.4 35 1.7 42 42 NNW 13 20 29.95 1014 10 16 0.00 0.00
11:54 pm 23:54 Clear 56 13.3 37 2.8 49 49 NNW 15 24 29.96 1015 10 16 0.00 0.00

Powered by AerisWeather